Weather in Aleksandrovsk

Russia / Perm Krai     59°09′46″N   57°35′04″E
temp.,
°C
wind,
m/s
gust,
m/s
humid.,
%
clouds,
%
prec.,
mm/h
press.,
hPa
HPBL,
m
25 february, thu
thu2523:00−26n229941 0.0 103121
02:00−28n11980 0.0 103119
05:00−29wnw111000 0.0 103119
08:00−29ssw0010069 0.0 103019
11:00−23wsw119248 0.0 1029182
14:00−19wsw128895 0.0 1028344
17:00−18ssw128997 0.0 1027355
20:00−23sse129986 0.0 102720
26 february, fri
fri2623:00−24se229747 0.0 102720
02:00−25se129526 0.0 102720
05:00−25ese129547 0.0 102719
08:00−26se129466 0.0 102620
11:00−20sse248654 0.0 1026259
14:00−15sse257931 0.0 1024467
17:00−14sse368218 0.0 1023546
20:00−19se39890 0.0 1021203
27 february, sat
sat2723:00−19se310880 0.0 1021230
02:00−20se310900 0.0 1019228
05:00−20ese39870 0.0 1018180
08:00−20ese413780 0.0 1016322
11:00−15ese512800 0.0 1015468
14:00−13ese612780 0.0 1013570
17:00−16ese614840 0.0 1013559
20:00−20ese4148615 0.0 1014595
28 february, sun
sun2823:00−21ese4138633 0.0 1015549
02:00−23ese3118939 0.0 1014360
05:00−23e259064 0.0 1014118
08:00−23e129095 0.0 101461
11:00−17ese168297 0.0 1014435
14:00−12e2578100 0.0 1013609
17:00−12ene2583100 0.0 1013598
20:00−17e2291100 0.0 101533
1 march, mon
mon123:00−20ene119398 0.0 101721
02:00−23e119466 0.0 101720
05:00−24ene119357 0.0 101820
08:00−25nne11920 0.0 101920
11:00−17nnw11860 0.0 1018220
14:00−13wnw228457 0.0 1017400
17:00−13w128976 0.0 1016385
20:00−18ssw229850 0.0 101420